Theta_e
316 316 315 315 314 313 314 315 315 314 313 312 313 315 314 314 315 315 314 315 315 314 314 314 314 314 314 315 315 314 314 315 314 315 315 315 316 316 315 315 315 315 315 316 316 317 318 317 316 316 316 316 315 315 316 316 315 315 315 315 315 315 315
316 315 315 315 315 314 314 315 315 315 315 314 314 315 315 315 315 315 315 315 315 314 314 314 313 314 314 314 314 314 314 314 314 315 314 314 316 316 315 315 315 315 315 315 315 315 316 316 316 315 315 315 315 315 315 314 315 315 315 315 315 315 315
316 315 315 315 315 314 314 315 315 315 315 315 315 315 315 315 315 316 315 315 315 314 314 314 313 314 314 313 314 314 314 314 313 314 314 314 315 315 315 315 315 315 315 315 315 314 315 315 315 315 314 314 314 314 314 314 314 314 314 315 315 315 314
315 316 315 314 314 314 315 314 314 314 314 315 315 315 315 314 314 314 314 315 314 313 313 313 313 314 313 312 314 314 314 313 313 314 314 314 315 315 314 314 315 314 315 315 314 314 315 315 316 315 314 314 314 313 313 313 313 313 314 314 314 314 314
315 315 314 314 314 314 314 314 314 314 314 314 314 314 313 314 314 314 314 314 313 313 313 313 314 315 314 313 314 314 314 313 314 314 314 313 314 313 313 314 314 314 314 314 313 314 314 314 315 315 314 313 313 313 313 313 313 313 313 313 314 314 314
315 314 313 313 314 315 315 315 315 314 314 313 314 313 313 314 314 314 314 314 313 313 314 314 314 315 314 313 314 314 314 313 314 314 313 313 313 313 313 313 313 313 313 313 313 313 313 313 314 315 313 313 313 313 313 312 312 313 313 313 313 313 313
315 314 314 313 314 315 315 315 314 314 314 314 314 313 314 314 314 314 314 314 313 314 314 314 314 314 314 313 313 313 313 313 313 313 312 312 312 312 312 313 312 312 312 312 312 312 312 313 313 313 313 313 313 313 312 312 312 312 312 312 313 313 313
315 315 314 314 315 315 314 314 314 314 314 314 314 314 314 314 314 313 313 314 314 314 314 314 314 313 313 312 312 312 312 312 313 312 312 312 311 311 312 311 311 312 311 311 311 311 311 312 312 312 313 313 313 313 312 312 312 312 312 312 312 312 312
315 315 314 314 314 314 314 313 314 314 314 314 314 314 313 314 313 313 313 313 313 313 313 313 313 312 312 312 312 312 312 312 312 311 311 311 311 311 311 310 310 311 311 311 310 311 310 311 311 311 312 312 313 313 312 312 312 312 312 312 311 312 312
315 315 314 313 314 314 313 313 313 313 313 314 314 313 313 313 313 312 312 312 312 312 312 312 312 312 312 311 311 311 311 311 311 311 311 311 311 310 310 310 310 310 310 310 310 310 310 309 310 310 311 311 311 312 312 312 312 312 311 311 311 311 312
315 314 314 313 313 313 313 313 313 313 313 313 313 313 313 313 312 311 311 311 312 311 311 312 312 311 311 311 311 311 311 311 311 311 310 311 310 310 310 310 310 309 309 309 309 309 309 309 309 310 310 310 310 311 312 312 312 311 311 311 311 311 311
315 314 314 314 313 314 313 313 313 312 312 312 313 313 312 312 312 311 311 311 311 311 311 311 311 311 311 311 311 311 311 311 311 311 311 311 311 310 310 310 310 310 309 309 309 308 308 309 309 309 309 309 309 310 310 311 311 311 310 311 311 311 311
316 315 314 314 314 314 313 313 313 312 312 312 312 312 312 312 311 311 311 312 311 311 311 311 311 311 311 311 311 311 311 311 311 311 311 311 311 310 311 310 310 310 310 309 309 309 309 309 308 308 309 309 309 308 309 310 311 311 310 310 310 310 310
316 316 315 314 314 314 313 313 313 313 312 312 312 312 312 312 311 311 311 311 311 311 312 312 312 312 312 312 312 312 312 312 312 312 312 311 311 311 311 311 311 310 310 309 309 309 309 308 308 308 308 308 308 308 308 309 310 309 309 309 309 309 309
317 316 315 315 314 314 314 313 313 313 313 312 312 312 312 312 312 312 312 312 312 312 312 312 312 312 312 312 312 312 312 313 313 313 312 312 312 312 311 311 311 311 311 310 310 309 309 309 309 308 308 308 308 308 308 308 308 309 308 308 308 308 308
317 317 316 315 315 314 314 313 312 313 313 312 312 312 312 312 312 313 313 313 312 312 312 312 312 312 312 313 313 313 313 313 313 312 312 312 312 312 312 312 312 311 311 311 310 310 310 310 309 309 309 309 308 308 308 308 308 308 308 308 308 308 307
317 317 316 315 315 314 314 313 312 312 312 312 312 312 312 312 313 313 313 313 313 313 313 313 313 313 313 313 314 313 312 311 310 309 309 310 310 311 311 311 310 310 311 311 311 310 310 310 310 310 309 309 309 309 308 308 308 308 308 307 307 307 307
317 317 316 315 314 314 313 313 313 312 312 313 313 313 313 313 313 313 313 314 314 314 314 313 313 313 313 313 313 312 310 308 307 306 306 306 306 307 308 308 308 308 308 309 310 310 310 310 310 310 310 309 309 309 309 309 308 308 307 307 307 307 307
317 316 315 315 314 313 313 313 313 313 313 313 313 313 313 314 314 314 314 314 314 314 313 313 313 313 312 312 311 310 308 307 306 305 304 303 303 304 304 305 306 306 307 307 308 309 309 310 310 310 310 310 310 309 309 309 309 308 308 307 307 307 307
316 315 315 314 313 313 313 313 313 313 313 313 314 314 315 315 314 314 314 314 314 313 312 312 313 311 309 309 308 307 306 305 303 302 302 302 302 303 303 304 304 304 305 306 306 307 308 309 310 310 310 310 310 309 309 309 309 308 308 307 307 307 307
316 315 314 314 313 313 313 313 313 314 314 315 315 314 315 314 314 314 314 313 313 312 311 312 311 309 307 306 305 305 304 303 302 301 300 300 301 302 303 303 304 304 304 305 305 306 307 308 309 310 310 310 310 309 309 309 309 308 308 307 307 307 306
315 314 314 313 313 314 314 314 315 315 315 315 315 315 315 314 314 313 313 312 312 311 311 310 309 306 305 305 304 304 304 303 303 301 300 300 302 303 304 305 305 305 305 305 305 305 305 306 307 308 308 308 309 309 309 309 308 308 308 307 307 306 307
314 314 314 313 314 314 314 315 315 315 315 315 314 315 314 313 312 311 311 311 311 310 310 308 306 305 305 304 304 303 303 302 302 301 300 300 301 303 304 305 305 305 306 306 307 307 307 307 307 307 308 308 308 309 309 309 309 308 308 307 307 307 307
313 314 314 314 314 315 314 315 315 315 314 314 314 314 312 311 310 310 310 311 310 309 308 307 305 304 304 304 302 301 301 301 301 300 300 300 300 300 300 299 299 299 301 302 303 303 303 304 304 305 306 307 307 307 307 308 308 308 308 307 307 307 307
314 314 315 315 315 315 315 314 314 314 313 313 312 312 310 310 309 309 309 309 308 307 306 305 303 303 303 302 300 299 299 299 298 297 298 300 300 299 298 296 295 295 295 296 297 297 298 299 301 303 304 305 305 306 306 306 307 307 307 307 307 307 307
315 315 315 315 315 314 314 313 312 312 312 312 311 310 309 308 308 308 307 306 306 306 304 303 302 301 300 298 297 297 298 297 296 295 296 298 298 298 296 295 295 294 294 295 295 295 297 299 299 300 302 303 304 305 305 305 306 306 306 306 306 307 306
315 315 315 314 314 314 313 312 311 311 311 310 309 308 307 307 307 306 306 305 306 304 302 301 300 298 297 296 296 296 296 295 294 294 294 295 295 295 295 294 294 295 295 295 295 296 297 297 296 297 298 300 301 302 303 304 305 306 306 306 306 306 306
315 314 313 313 312 312 311 310 310 310 309 307 307 306 306 306 305 305 304 304 304 302 301 299 298 296 296 296 295 295 294 294 293 293 293 293 294 294 294 294 295 295 295 295 296 297 297 295 294 295 295 296 296 297 298 300 301 303 305 306 305 305 305
313 312 311 311 311 310 309 309 309 307 306 306 306 306 305 305 304 304 303 302 302 301 300 298 297 296 295 295 295 294 293 293 293 293 293 293 294 294 294 294 295 295 295 296 297 296 295 294 293 294 294 294 294 294 295 296 297 300 303 304 304 304 305
312 311 310 310 309 307 307 308 307 306 305 305 305 304 304 303 302 301 301 300 300 300 299 297 296 295 295 294 293 293 292 292 293 293 293 293 293 293 293 293 294 295 295 295 295 295 294 293 293 293 292 292 292 293 293 294 294 297 300 302 302 302 304
311 310 310 309 307 306 307 307 305 305 305 304 303 303 302 300 299 299 299 299 298 298 298 297 296 295 294 293 292 291 291 292 292 292 291 291 291 291 291 292 293 293 293 293 293 293 292 292 292 291 291 291 291 292 292 293 293 295 298 300 299 299 302
311 310 309 307 306 306 306 305 304 304 303 302 301 300 299 298 297 298 297 297 296 297 297 296 295 294 293 292 290 289 289 290 290 289 289 289 290 290 291 291 291 292 292 292 292 291 291 291 290 290 290 291 291 292 292 293 293 294 297 297 296 297 300
310 309 307 306 306 306 306 304 302 301 301 299 298 297 296 297 297 297 296 295 296 296 296 295 294 293 292 291 289 288 289 289 289 289 289 289 290 290 290 290 291 291 291 291 291 291 291 291 290 290 290 291 292 292 293 293 293 294 295 296 296 297 299
307 308 306 305 306 306 304 302 301 300 299 296 295 295 296 296 296 295 295 295 295 295 295 295 294 292 291 289 288 288 288 289 289 289 289 289 290 290 290 290 290 291 291 291 291 291 292 292 291 291 291 291 292 292 292 293 293 294 295 296 298 298 299
306 307 305 304 305 305 303 301 300 298 296 294 294 295 296 296 295 294 295 295 295 294 294 294 293 291 290 289 288 288 288 288 289 289 289 289 289 289 290 290 290 290 290 291 291 291 291 292 292 292 293 293 293 293 293 293 293 294 296 297 298 299 299
305 306 305 304 304 303 302 301 299 296 294 293 294 295 295 294 294 294 294 294 294 294 293 293 292 290 289 288 288 288 288 288 288 288 289 289 289 289 289 289 289 289 289 289 289 289 290 291 292 293 294 294 294 294 294 294 294 295 296 297 298 299 300
304 305 304 303 303 302 300 300 298 295 293 293 293 294 294 294 293 293 293 293 293 293 293 292 291 289 288 288 288 287 288 288 288 288 288 288 288 288 288 287 286 286 286 287 288 288 289 290 291 293 294 295 295 295 294 295 296 296 297 298 299 300 301
Wind_Speed
13 11 11 10 9 10 12 11 11 13 12 12 12 12 12 13 12 12 13 12 12 13 13 13 12 13 13 13 14 14 13 14 15 14 15 18 17 17 20 20 19 18 19 18 15 11 8 7 13 16 18 22 22 20 19 20 21 21 22 23 22 21 20
12 11 11 12 10 9 12 12 10 11 11 11 12 11 11 12 11 12 12 12 12 12 12 12 12 12 12 13 13 12 13 14 13 13 13 15 15 15 17 18 19 18 18 19 19 17 11 7 9 9 15 21 20 19 20 21 21 21 23 23 20 19 21
12 11 11 11 11 10 11 11 10 10 10 10 11 10 11 11 11 11 12 12 12 12 12 12 11 12 11 12 13 12 13 13 13 12 12 12 13 14 14 15 16 16 15 14 15 17 13 10 8 8 12 16 15 18 22 23 23 24 24 22 20 19 20
12 12 11 10 11 11 11 11 10 10 11 10 10 10 11 11 11 11 11 11 12 12 12 11 11 11 11 12 12 12 13 13 13 12 12 13 13 14 14 14 15 14 13 12 14 17 13 9 8 7 11 15 15 18 22 24 25 24 23 22 21 18 18
13 12 12 11 11 11 11 11 11 11 11 11 11 11 11 11 11 11 11 10 11 12 11 11 11 10 12 14 13 12 13 14 13 13 14 14 14 14 14 14 14 15 16 16 17 18 16 14 12 7 10 16 14 16 22 23 23 22 21 22 22 19 18
13 12 11 11 11 10 10 11 11 11 11 11 11 11 12 11 11 11 11 10 11 12 11 12 12 10 12 15 15 13 14 15 14 13 15 16 14 15 16 14 14 16 18 18 18 19 19 19 15 8 11 16 12 14 21 22 21 21 20 20 21 22 19
11 10 11 11 9 9 10 10 10 10 10 11 11 11 11 11 11 12 11 10 11 12 11 12 13 11 12 15 15 14 15 15 14 13 15 17 16 16 16 15 16 17 18 19 19 20 19 18 16 11 11 13 13 14 17 20 21 19 18 19 20 22 22
9 9 10 10 8 8 9 9 9 9 9 11 10 10 11 11 11 12 12 11 11 10 10 11 12 11 11 13 13 14 15 14 14 15 16 16 16 15 14 15 17 18 19 19 18 19 19 19 18 18 14 10 10 11 10 14 18 17 18 20 20 22 23
7 7 8 8 7 6 7 8 8 9 10 11 10 10 12 11 9 11 11 10 9 8 9 8 9 10 10 10 12 13 14 13 13 14 15 16 16 14 13 14 15 17 18 19 18 18 19 20 19 19 18 13 10 8 7 9 10 11 18 21 20 20 21
7 7 7 8 10 8 6 7 7 8 10 10 10 9 12 12 9 9 11 11 9 8 8 7 7 9 9 10 11 12 13 14 14 15 17 17 15 14 14 13 13 16 18 18 17 16 17 20 19 18 19 18 15 9 7 7 6 8 16 20 20 19 20
7 9 9 10 12 11 8 8 8 9 10 10 10 9 12 13 10 10 13 14 13 12 12 12 12 12 11 11 12 12 14 15 16 17 18 16 15 15 17 18 17 19 19 17 16 17 18 18 17 18 20 22 21 14 9 8 8 11 16 19 20 20 22
6 8 9 10 12 13 11 11 10 10 10 10 11 11 12 13 12 13 15 15 15 16 16 16 16 17 16 13 13 14 17 17 18 18 17 16 16 16 19 21 22 21 20 17 16 18 19 17 17 20 22 22 22 20 18 13 8 11 17 19 20 22 23
5 5 6 8 10 11 11 12 11 10 11 11 10 11 12 13 13 14 15 14 14 15 17 18 19 19 17 15 16 17 18 18 18 18 18 18 18 19 19 21 22 22 20 19 19 18 18 18 20 21 21 22 22 23 23 18 9 11 18 21 22 24 23
4 4 4 6 7 8 10 12 12 12 13 12 10 11 13 13 14 15 16 16 16 16 18 19 19 19 19 18 19 20 19 19 20 20 19 19 20 21 21 21 22 23 22 22 22 21 21 22 22 22 21 22 22 22 22 20 13 11 17 21 22 23 23
2 4 6 5 5 7 10 11 13 15 14 13 12 13 14 15 16 18 18 19 20 19 19 20 21 22 23 23 22 22 21 20 20 21 20 20 22 24 24 24 24 25 24 23 23 22 23 23 23 23 22 21 21 21 21 21 18 14 15 19 21 22 23
2 5 7 6 5 7 9 11 13 16 15 14 15 15 15 17 19 20 20 21 22 22 22 22 23 24 24 23 23 22 20 19 20 22 23 23 25 26 27 26 26 26 26 25 25 24 24 24 23 23 23 22 23 23 22 22 22 18 16 17 19 20 21
3 4 6 6 6 7 9 11 12 14 16 16 16 16 17 18 19 20 21 22 23 24 25 25 25 25 24 23 21 20 20 20 22 24 25 26 26 27 28 28 28 28 29 29 28 26 26 25 25 25 24 23 23 24 24 24 24 22 20 18 18 20 21
3 4 6 7 6 6 9 11 12 14 16 15 16 17 18 19 19 19 21 23 25 26 26 27 26 25 22 21 20 20 21 23 24 25 27 28 29 29 29 30 30 30 30 31 30 29 28 28 28 27 26 25 24 24 24 24 24 25 23 21 21 21 21
4 4 6 7 7 8 10 11 12 14 15 15 16 17 18 19 20 22 24 25 25 25 25 24 22 20 19 19 19 19 21 23 25 27 29 30 31 31 31 32 32 32 32 32 32 31 30 30 30 30 28 27 26 26 26 26 26 26 26 24 23 21 20
5 5 5 6 8 9 10 11 13 14 15 15 16 18 21 23 24 25 25 24 23 23 23 21 19 18 19 19 20 21 22 25 27 29 31 32 32 32 32 33 33 33 33 33 33 33 32 31 30 29 28 28 27 27 28 28 27 28 27 25 22 20 20
6 5 4 5 8 9 9 10 12 15 16 16 18 22 23 24 24 23 22 22 22 23 22 18 16 18 20 21 23 23 23 26 29 31 34 34 33 32 32 32 32 33 33 34 34 35 35 35 33 32 31 30 30 30 29 28 27 26 25 23 20 19 20
6 4 4 5 8 8 9 12 15 17 18 19 21 21 20 21 21 21 22 21 21 22 18 14 15 20 21 24 25 24 25 29 30 33 35 34 33 32 31 32 32 32 33 35 37 38 39 38 37 36 35 34 33 32 31 29 27 25 23 21 19 19 18
5 6 6 7 9 12 15 18 18 18 17 19 19 18 19 20 20 21 22 20 20 20 15 13 18 22 23 26 27 27 29 30 29 31 33 33 32 31 30 30 31 33 34 34 35 36 36 37 36 36 36 35 33 31 29 27 26 25 23 20 19 18 17
7 11 13 12 12 15 17 18 17 16 16 18 18 17 19 20 20 21 20 19 21 18 14 16 21 24 25 27 28 30 30 27 27 30 30 31 31 30 31 33 34 35 35 35 36 37 37 37 37 36 36 35 33 32 30 28 26 24 22 21 21 20 17
11 13 15 15 15 16 16 15 16 17 17 17 17 18 19 20 20 20 18 19 20 15 15 19 23 24 26 27 29 31 29 27 29 31 30 30 29 29 32 35 35 35 35 37 40 39 37 34 34 34 35 34 33 33 33 31 29 27 25 23 22 22 20
13 14 14 15 15 15 15 16 17 18 17 16 17 18 19 19 20 19 19 20 19 15 16 21 23 25 27 29 33 32 28 30 32 30 30 30 29 30 32 34 34 34 35 36 38 36 33 32 33 34 33 32 31 31 32 32 31 31 30 28 26 25 24
13 13 13 14 14 14 15 17 17 16 15 16 18 19 19 18 18 19 20 21 17 14 17 21 23 27 30 33 36 34 31 33 32 29 29 30 30 31 32 33 34 34 35 35 35 33 31 33 36 35 32 31 31 31 30 30 29 30 32 33 32 30 28
13 13 14 14 13 14 16 16 15 15 16 18 18 18 17 18 19 19 20 20 17 14 17 21 25 30 33 35 37 35 33 33 31 29 31 31 31 31 32 33 34 34 34 35 33 29 30 35 39 37 32 31 32 32 32 32 31 31 31 34 36 37 35
14 14 13 13 13 14 15 14 14 16 17 17 16 16 17 18 19 20 20 20 19 15 15 21 27 31 34 35 36 36 34 33 32 31 31 30 30 31 32 32 33 33 34 33 31 31 36 42 41 34 30 31 33 34 36 37 36 34 29 27 29 35 38
13 13 12 12 14 15 14 13 15 17 17 16 16 17 18 18 19 20 19 21 21 16 15 21 28 30 33 35 37 40 37 32 30 29 29 30 30 31 31 31 31 32 33 31 32 37 42 45 43 38 35 35 35 35 36 38 37 34 29 25 24 27 32
13 12 12 13 14 14 12 13 16 16 15 16 17 18 18 18 19 20 19 21 22 18 16 21 26 30 34 37 41 41 36 28 27 27 29 31 31 30 30 31 31 31 31 32 35 39 42 43 45 46 43 38 35 34 33 34 34 32 29 28 28 28 27
11 10 11 12 12 11 12 13 15 15 15 16 17 18 19 19 18 19 20 21 21 20 19 21 26 31 34 37 40 38 31 27 28 29 31 32 32 31 31 32 32 32 33 36 39 42 43 44 45 45 40 34 32 32 31 29 29 28 28 29 31 29 26
9 9 10 11 10 10 11 13 15 15 16 17 18 19 18 17 17 19 20 20 19 20 21 22 26 30 32 34 37 35 29 27 30 33 33 32 33 34 33 34 34 35 38 41 44 45 47 47 45 43 38 31 29 31 32 30 30 29 28 28 28 28 26
8 9 10 11 10 10 11 14 15 16 17 18 19 18 17 16 17 18 19 18 18 20 20 21 25 29 31 33 35 34 31 30 32 34 34 33 33 34 35 36 37 39 42 46 48 48 49 48 46 44 40 34 33 36 36 36 35 32 27 25 24 24 24
9 9 11 11 10 10 12 14 15 16 18 19 18 16 15 16 17 17 17 17 17 19 19 20 24 28 30 31 32 33 33 34 33 33 33 32 32 33 35 37 40 42 45 47 47 46 46 45 43 42 40 37 38 39 38 38 36 30 23 21 22 21 21
9 9 11 11 10 12 14 14 14 16 18 18 16 14 15 16 16 16 16 16 17 18 18 19 22 27 30 30 31 33 33 33 34 34 32 29 30 33 34 37 41 43 44 44 42 41 41 41 40 39 38 38 39 39 37 35 31 25 19 18 18 18 18
9 9 11 10 10 13 14 13 14 16 17 17 15 14 14 15 15 15 15 15 16 17 18 18 21 26 29 29 31 33 33 32 33 33 29 27 30 32 33 36 41 43 42 42 41 40 39 39 39 36 35 37 37 34 29 26 21 18 16 16 16 16 16
Wind_Direction
13 14 19 25 22 10 21 25 9 9 14 11 12 11 5 8 8 4 4 4 7 4 359 7 5 2 3 357 6 14 6 10 11 7 8 1 355 355 354 350 347 345 337 334 339 335 322 318 331 337 336 336 336 333 336 339 335 333 334 332 330 328 318
11 13 18 15 20 21 19 21 13 5 8 9 7 5 1 2 3 1 2 1 5 3 356 1 0 359 1 355 1 5 360 8 8 3 9 1 351 350 350 347 344 343 338 337 338 334 327 324 328 331 333 332 330 329 335 336 333 334 330 323 321 319 313
11 13 25 15 15 27 23 17 14 7 7 6 3 2 358 358 1 1 1 1 2 0 355 357 356 357 4 356 356 359 358 4 358 353 2 356 345 345 347 342 337 339 336 332 333 331 330 329 323 320 324 325 324 328 333 334 332 329 322 316 318 320 319
18 14 22 21 16 20 21 16 13 11 9 6 2 3 1 0 3 1 360 1 360 358 355 357 354 357 3 355 352 356 358 357 348 349 359 351 340 340 342 336 330 332 328 322 326 328 328 326 320 314 314 316 319 322 326 328 325 321 318 320 322 320 323
25 19 18 24 21 14 14 14 13 12 8 5 4 5 4 3 5 2 359 360 358 354 355 357 353 355 0 355 352 354 356 351 343 351 354 341 333 334 332 326 327 330 325 319 320 320 318 314 308 301 315 322 321 317 319 321 319 317 320 322 321 322 329
28 25 19 20 20 12 9 11 13 11 6 4 6 7 3 1 4 360 355 358 359 353 355 357 352 355 2 358 353 352 353 345 338 349 346 331 329 332 327 327 333 331 321 316 314 311 310 308 306 308 324 325 318 312 316 316 315 316 319 319 320 326 330
28 32 28 17 13 9 6 10 11 8 5 3 3 3 359 358 1 356 352 359 1 355 356 356 353 359 1 357 354 351 349 341 335 344 340 330 331 330 327 333 335 325 314 313 313 312 314 317 321 325 324 318 310 307 310 311 313 314 315 318 321 325 326
22 36 37 19 8 6 2 6 7 4 5 359 355 357 355 352 354 355 354 356 356 353 354 354 354 356 353 355 355 347 342 339 336 340 336 330 327 324 327 334 329 320 315 315 316 317 322 326 325 323 321 316 307 305 306 307 308 306 310 317 319 320 321
15 31 41 23 8 11 8 3 2 4 2 353 349 355 351 343 345 352 349 343 340 341 343 345 349 346 338 344 350 340 334 333 330 330 327 321 319 316 319 322 319 315 313 313 313 316 320 319 316 315 313 309 304 306 304 301 300 304 312 315 313 313 315
10 13 33 31 8 360 10 8 6 8 358 344 343 352 347 338 337 347 340 328 322 325 327 325 330 330 323 328 336 330 325 324 321 321 316 310 313 316 313 309 306 303 301 301 302 307 310 308 307 307 304 300 296 295 297 300 304 307 309 308 305 307 312
18 7 12 27 2 344 360 18 15 7 354 340 337 342 341 333 328 339 339 330 328 330 330 328 326 325 317 315 321 320 316 315 310 308 306 303 311 319 317 312 304 295 291 287 290 300 302 300 303 306 304 298 292 289 297 305 302 298 299 301 302 307 312
30 9 2 15 358 344 354 5 3 357 347 338 333 332 332 329 329 336 335 331 333 333 331 328 323 318 311 306 310 309 306 303 295 295 301 306 310 313 313 309 303 298 295 290 290 295 295 294 300 301 298 298 299 301 301 295 289 295 299 301 305 307 308
22 3 355 359 348 342 349 349 347 346 335 324 323 328 327 324 327 327 322 322 325 322 319 315 312 310 306 303 306 305 303 299 292 296 304 308 308 308 306 302 299 301 303 302 301 298 292 294 297 292 289 293 299 302 298 290 286 296 300 302 305 306 307
2 343 340 344 337 339 345 344 343 337 323 313 313 320 320 319 321 320 319 321 320 315 314 312 315 319 315 310 310 308 306 301 298 302 304 305 305 304 300 295 293 296 297 296 296 293 290 290 287 283 284 286 288 290 292 294 294 296 299 300 301 303 306
340 333 325 328 337 341 344 346 340 324 313 317 322 320 322 326 328 327 326 326 322 319 317 316 318 319 314 310 310 309 309 312 316 318 317 314 312 308 304 299 294 292 291 288 286 284 285 283 278 274 275 276 277 279 283 289 291 291 294 297 299 302 303
347 335 322 325 337 343 343 341 332 320 319 327 327 324 330 334 332 330 327 323 321 320 319 320 321 321 317 316 318 322 329 338 339 335 330 324 318 312 309 305 301 298 294 288 283 283 282 280 274 270 269 269 271 272 275 279 282 284 289 294 298 301 302
312 313 308 312 320 328 331 327 324 324 326 327 327 330 333 329 324 322 321 320 323 326 327 327 328 327 327 329 336 345 351 350 345 339 334 327 321 316 312 309 306 304 300 293 287 284 282 279 275 272 272 271 269 268 270 271 271 275 281 287 291 293 295
283 289 296 303 313 323 327 327 330 329 325 324 325 325 321 316 315 321 327 329 329 329 327 327 328 329 332 339 348 352 348 344 341 336 331 325 319 315 311 308 306 304 302 298 293 287 282 279 277 276 274 274 272 272 272 271 268 269 272 277 282 284 285
322 323 317 325 335 336 331 328 327 322 317 317 318 319 323 328 332 336 335 331 328 326 327 332 338 344 347 348 348 348 345 342 339 334 329 323 317 312 308 305 303 301 299 297 294 291 286 281 278 275 273 273 272 272 271 270 269 268 267 269 273 276 279
315 317 323 332 328 323 319 317 316 316 316 321 330 337 342 341 339 336 332 329 329 333 340 347 351 353 353 351 349 350 349 345 341 337 332 324 317 312 308 305 303 301 299 296 294 293 290 287 282 278 276 275 274 271 268 265 264 265 263 262 264 269 276
281 278 284 303 302 298 304 317 329 333 336 343 347 345 342 338 335 333 331 334 337 340 345 352 353 352 354 354 353 353 350 346 343 338 332 324 317 313 310 308 306 304 302 300 298 296 294 292 290 287 284 282 280 276 272 268 265 262 259 258 261 265 269
287 279 280 301 312 321 337 348 351 347 348 350 345 340 338 337 336 335 336 338 338 341 347 355 356 355 356 355 356 354 350 346 341 335 330 325 320 316 314 311 309 308 306 304 302 300 297 294 291 289 287 285 282 278 275 273 270 265 260 259 261 262 264
339 8 359 349 354 3 0 355 351 350 351 348 342 341 341 341 340 338 339 338 338 345 360 9 2 359 357 356 356 354 348 344 339 334 330 325 322 321 320 319 318 317 315 311 308 308 307 306 303 298 294 290 286 282 280 278 274 267 261 257 254 255 258
22 19 7 0 5 5 355 349 353 357 354 347 343 345 345 343 341 339 338 339 341 353 16 14 2 359 358 357 355 352 349 344 340 336 330 325 323 325 327 328 326 324 320 317 316 318 318 317 316 312 307 302 297 292 286 282 278 272 264 260 257 252 252
18 16 12 4 3 2 356 359 4 360 351 347 348 348 346 342 339 339 342 344 347 4 19 8 1 1 0 357 354 354 353 348 343 337 329 324 323 326 327 325 323 322 320 318 318 319 320 320 321 319 316 312 306 300 294 289 284 277 268 262 261 255 250
15 16 15 6 2 4 7 9 4 353 349 351 351 348 343 340 341 346 350 351 356 13 15 6 4 4 1 357 356 358 357 350 344 336 330 327 325 324 323 320 319 318 317 317 318 318 320 324 328 328 325 320 315 309 303 295 287 280 271 262 260 257 252
19 19 15 9 5 9 12 6 356 351 355 356 350 345 341 343 349 354 355 356 1 14 14 9 7 4 1 358 358 358 354 347 341 334 330 327 322 320 318 316 315 313 313 315 316 315 318 327 333 335 332 327 323 319 314 305 296 288 276 266 261 259 254
31 26 16 9 9 13 9 359 354 359 3 355 346 343 347 354 357 357 358 359 6 18 19 13 9 5 1 357 355 354 349 343 337 330 326 322 317 315 314 312 311 310 311 311 310 312 324 334 336 335 332 329 324 321 317 313 310 303 287 272 265 261 255
38 25 10 9 17 14 2 357 2 7 1 348 345 352 358 360 359 358 360 3 8 19 20 13 10 5 360 356 353 349 344 338 332 327 322 320 318 316 315 313 311 310 310 310 310 317 329 335 335 332 330 327 322 317 313 310 310 311 306 292 279 271 263
33 19 11 18 20 7 358 5 11 7 355 348 355 4 3 2 1 1 3 8 12 17 19 15 10 5 1 358 352 347 343 339 334 331 327 324 322 320 318 316 314 313 313 314 315 319 325 328 329 327 324 321 317 312 309 307 306 307 309 309 304 295 281
30 18 16 22 14 0 6 17 12 3 356 357 5 8 6 5 4 3 7 12 13 15 16 12 8 5 3 356 350 349 348 343 339 336 331 327 324 322 320 318 319 318 316 317 318 319 320 320 319 317 316 315 312 307 304 306 305 302 301 305 308 309 301
29 20 20 19 9 5 18 21 11 5 6 8 11 11 9 7 4 7 13 11 10 12 11 6 6 4 357 350 351 355 354 348 343 338 332 328 326 324 323 322 322 322 319 319 318 317 315 314 313 310 309 308 306 303 301 302 302 300 301 303 302 303 303
28 28 24 16 10 16 26 23 15 15 19 19 15 12 10 8 8 12 13 9 8 11 10 8 6 358 351 352 359 1 357 351 346 339 334 331 328 326 326 326 325 324 323 321 320 318 317 316 313 308 304 298 293 293 295 295 295 295 296 295 292 290 292
25 38 29 15 13 23 31 27 23 27 29 22 14 11 11 14 14 12 9 7 9 9 8 9 3 354 353 359 3 1 357 352 347 342 338 335 333 332 330 328 326 324 322 320 320 320 320 319 316 311 304 296 290 291 292 290 289 290 289 286 284 282 281
25 43 31 16 17 29 36 34 32 36 33 22 12 11 16 19 16 10 7 7 8 7 6 5 359 354 357 0 360 359 358 353 350 348 344 341 341 338 336 334 331 328 327 326 326 326 325 323 321 316 309 304 300 299 294 289 287 284 280 279 278 275 274
27 43 31 16 21 37 41 38 39 42 35 22 12 11 19 21 15 8 7 6 5 5 5 3 357 354 357 358 357 358 358 356 355 352 348 346 345 343 344 345 343 341 341 339 337 336 333 330 326 319 314 311 307 304 300 293 285 276 271 272 272 269 269
24 36 29 17 28 44 44 42 47 45 35 24 13 9 17 21 14 8 6 3 2 3 3 2 358 355 356 356 356 357 358 357 357 354 351 349 346 345 348 350 351 354 356 353 350 346 343 341 337 328 322 319 314 311 309 298 279 267 266 265 263 263 262